Weather History for Seminole, TX

Change the Weather History Date:

Friday, November 16, 2012

  Actual Average (KHOB) Record (KHOB)
Temperature  
Mean Temperature 52 °F -  
Max Temperature 64 °F 63 °F 78 °F (1952)
Min Temperature 41 °F 37 °F 19 °F (1997)
Degree Days  
Heating Degree Days 12    
Growing Degree Days 2 (Base 50)    
Moisture  
Dew Point 31 °F    
Average Humidity 47    
Maximum Humidity 76    
Minimum Humidity 34    
Precipitation  
Precipitation 0.00 in - - ()
Sea Level Pressure  
Sea Level Pressure 30.32 in    
Wind  
Wind Speed 3 mph (SE)    
Max Wind Speed 12 mph    
Max Gust Speed 9 mph    
Visibility 10 miles    
Events      
Averages and records for this station are not official NWS values.
T = Trace of Precipitation, MM = Missing Value Source: NWS Daily Summary

Daily Weather History Graph

Daily Weather History Graph

Search for Another Location

Airport:

Trip Planner

Search our weather history database for the weather conditions in past years. The results will help you decide how hot, cold, wet, or windy it might be!

Date:

Astronomy

Nov. 16, 2012 Rise Set
Actual Time 7:21 AM CST 5:48 PM CST
Civil Twilight 6:55 AM CST 6:14 PM CST
Nautical Twilight 6:25 AM CST 6:44 PM CST
Astronomical Twilight 5:56 AM CST 7:14 PM CST
Moon 10:15 AM CST (11/16) 8:52 PM CST (11/16)
Length of Visible Light 11h 19m
Length of Day
10h 26m
Waxing Crescent, 12% of the Moon is Illuminated
Nov 16
Waxing Crescent
Nov 20
First Quarter
Nov 28
Full
Dec 6
Last Quarter
Dec 13
New

Hourly Weather History & Observations

Time (CST) Temp. Windchill Dew Point Humidity Pressure Visibility Wind Dir Wind Speed Gust Speed Precip Events Conditions
12:15 AM 46.2 °F 43.3 °F 19.2 °F 34% 30.31 in 10.0 mi NNE 5.8 mph - N/A   Clear
12:35 AM 45.0 °F 41.2 °F 18.9 °F 35% 30.30 in 10.0 mi NNE 6.9 mph - N/A   Clear
12:55 AM 44.2 °F - 18.5 °F 36% 30.30 in 10.0 mi Calm Calm - N/A   Clear
1:15 AM 44.4 °F - 18.5 °F 35% 30.31 in 10.0 mi Calm Calm - N/A   Clear
1:35 AM 44.1 °F - 18.5 °F 36% 30.32 in 10.0 mi Calm Calm - N/A   Clear
1:55 AM 43.9 °F - 18.5 °F 36% 30.31 in 10.0 mi Calm Calm - N/A   Clear
2:15 AM 42.8 °F - 18.5 °F 38% 30.32 in 10.0 mi Calm Calm - N/A   Clear
2:35 AM 42.3 °F - 18.7 °F 39% 30.32 in 10.0 mi Calm Calm - N/A   Clear
2:55 AM 42.1 °F 37.7 °F 18.9 °F 39% 30.32 in 10.0 mi NNE 6.9 mph - N/A   Clear
3:15 AM 42.4 °F - 19.0 °F 39% 30.32 in 10.0 mi Calm Calm - N/A   Clear
3:35 AM 42.8 °F 38.0 °F 19.0 °F 39% 30.32 in 10.0 mi NNE 8.1 mph - N/A   Clear
3:55 AM 42.6 °F - 19.2 °F 39% 30.32 in 10.0 mi Calm Calm - N/A   Clear
4:15 AM 42.4 °F - 19.6 °F 40% 30.32 in 10.0 mi Calm Calm - N/A   Clear
4:35 AM 42.8 °F 38.6 °F 19.9 °F 40% 30.32 in 10.0 mi NNE 6.9 mph - N/A   Clear
4:55 AM 42.8 °F - 20.3 °F 41% 30.32 in 10.0 mi Calm Calm - N/A   Clear
5:15 AM 42.6 °F - 20.5 °F 41% 30.32 in 10.0 mi Calm Calm - N/A   Clear
5:35 AM 42.4 °F - 20.8 °F 42% 30.32 in 10.0 mi Calm Calm - N/A   Clear
5:55 AM 42.8 °F - 21.2 °F 42% 30.33 in 10.0 mi Calm Calm - N/A   Clear
6:15 AM 42.6 °F - 21.2 °F 43% 30.34 in 10.0 mi Calm Calm - N/A   Clear
6:35 AM 42.4 °F - 21.6 °F 44% 30.34 in 10.0 mi Calm Calm - N/A   Clear
6:55 AM 42.4 °F - 21.9 °F 44% 30.35 in 10.0 mi Calm Calm - N/A   Clear
7:15 AM 42.1 °F - 22.1 °F 45% 30.34 in 10.0 mi Calm Calm - N/A   Clear
7:35 AM 41.9 °F - 22.6 °F 46% 30.35 in 10.0 mi Calm Calm - N/A   Clear
7:55 AM 42.1 °F - 23.0 °F 47% 30.35 in 10.0 mi Calm Calm - N/A   Clear
8:15 AM 42.8 °F - 23.2 °F 46% 30.35 in 10.0 mi Calm Calm - N/A   Clear
8:35 AM 43.3 °F - 23.5 °F 46% 30.36 in 10.0 mi Calm Calm - N/A   Clear
8:55 AM 44.6 °F 40.7 °F 23.9 °F 44% 30.37 in 10.0 mi NE 6.9 mph - N/A   Clear
9:15 AM 45.9 °F - 24.1 °F 42% 30.38 in 10.0 mi Calm Calm - N/A   Clear
9:35 AM 47.5 °F - 25.2 °F 42% 30.38 in 10.0 mi Calm Calm - N/A   Clear
9:55 AM 48.7 °F - 26.2 °F 42% 30.39 in 10.0 mi Calm Calm - N/A   Clear
10:15 AM 50.4 °F - 28.0 °F 42% 30.39 in 10.0 mi ENE 5.8 mph - N/A   Clear
10:35 AM 52.3 °F - 30.2 °F 43% 30.39 in 10.0 mi ENE 3.5 mph - N/A   Clear
10:55 AM 54.1 °F - 31.6 °F 42% 30.38 in 10.0 mi East 5.8 mph - N/A   Clear
11:15 AM 55.6 °F - 32.7 °F 42% 30.38 in 10.0 mi ESE 4.6 mph - N/A   Clear
11:35 AM 57.0 °F - 34.3 °F 42% 30.37 in 10.0 mi ESE 4.6 mph - N/A   Clear
11:55 AM 58.3 °F - 36.7 °F 45% 30.36 in 10.0 mi SSE 5.8 mph - N/A   Clear
12:15 PM 59.7 °F - 38.7 °F 46% 30.34 in 10.0 mi SSE 8.1 mph - N/A   Clear
12:35 PM 61.0 °F - 40.8 °F 47% 30.33 in 10.0 mi SSE 6.9 mph - N/A   Clear
12:55 PM 61.9 °F - 41.7 °F 48% 30.32 in 10.0 mi SSE 11.5 mph - N/A   Clear
1:15 PM 62.4 °F - 41.4 °F 46% 30.31 in 10.0 mi SSE 8.1 mph - N/A   Clear
1:35 PM 63.1 °F - 41.7 °F 46% 30.31 in 10.0 mi SSE 9.2 mph - N/A   Clear
1:55 PM 63.1 °F - 40.8 °F 44% 30.30 in 10.0 mi SSE 8.1 mph - N/A   Clear
2:15 PM 63.7 °F - 40.3 °F 42% 30.29 in 10.0 mi SSE 4.6 mph - N/A   Clear
2:35 PM 63.9 °F - 40.3 °F 42% 30.28 in 10.0 mi SE 4.6 mph 9.2 mph N/A   Clear
2:55 PM 63.5 °F - 39.4 °F 41% 30.27 in 10.0 mi SSE 8.1 mph - N/A   Clear
3:15 PM 64.2 °F - 39.2 °F 40% 30.27 in 10.0 mi SE 9.2 mph - N/A   Clear
3:35 PM 63.9 °F - 38.8 °F 40% 30.27 in 10.0 mi SE 8.1 mph - N/A   Clear
3:55 PM 63.1 °F - 39.4 °F 42% 30.26 in 10.0 mi SE 6.9 mph - N/A   Clear
4:15 PM 63.7 °F - 39.6 °F 41% 30.27 in 10.0 mi ESE 8.1 mph - N/A   Clear
4:35 PM 63.1 °F - 39.0 °F 41% 30.27 in 10.0 mi SE 10.4 mph - N/A   Clear
4:55 PM 62.2 °F - 39.0 °F 42% 30.27 in 10.0 mi SE 8.1 mph - N/A   Clear
5:15 PM 61.3 °F - 38.8 °F 43% 30.27 in 10.0 mi SE 9.2 mph - N/A   Clear
5:35 PM 60.6 °F - 38.8 °F 45% 30.27 in 10.0 mi SE 6.9 mph - N/A   Clear
5:55 PM 59.5 °F - 39.2 °F 47% 30.26 in 10.0 mi SE 5.8 mph - N/A   Clear
6:15 PM 57.7 °F - 39.0 °F 50% 30.26 in 10.0 mi SE 5.8 mph - N/A   Clear
6:35 PM 55.9 °F - 39.2 °F 53% 30.27 in 10.0 mi SSE 4.6 mph - N/A   Clear
6:55 PM 54.7 °F - 39.2 °F 56% 30.28 in 10.0 mi SE 5.8 mph - N/A   Clear
7:15 PM 53.1 °F - 39.2 °F 59% 30.28 in 10.0 mi SE 5.8 mph - N/A   Clear
7:55 PM 52.0 °F - 39.6 °F 63% 30.29 in 10.0 mi SE 4.6 mph - N/A   Clear
8:15 PM 51.1 °F - 39.7 °F 65% 30.30 in 10.0 mi SSE 4.6 mph - N/A   Clear
8:35 PM 50.4 °F - 39.6 °F 66% 30.30 in 10.0 mi SE 4.6 mph - N/A   Clear
8:55 PM 49.5 °F - 39.6 °F 69% 30.30 in 10.0 mi SSE 3.5 mph - N/A   Clear
9:15 PM 49.3 °F - 39.4 °F 69% 30.30 in 10.0 mi SSE 3.5 mph - N/A   Clear
9:55 PM 49.3 °F - 39.9 °F 70% 30.30 in 10.0 mi SSE 3.5 mph - N/A   Clear
10:15 PM 49.1 °F - 39.9 °F 71% 30.30 in 10.0 mi SSE 3.5 mph - N/A   Clear
10:35 PM 48.7 °F - 39.9 °F 72% 30.30 in 10.0 mi SSE 3.5 mph - N/A   Clear
10:55 PM 48.6 °F - 40.3 °F 73% 30.30 in 10.0 mi Calm Calm - N/A   Clear
11:15 PM 48.6 °F - 40.3 °F 73% 30.30 in 10.0 mi Calm Calm - N/A   Clear
11:35 PM 48.2 °F - 40.6 °F 75% 30.30 in 10.0 mi Calm Calm - N/A   Clear
11:55 PM 48.2 °F - 40.8 °F 76% 30.29 in 10.0 mi Calm Calm - N/A   Clear